Flag for U.S.A. Weather past 2 weeks in Durham, North Carolina, U.S.A.

Now
60 °F

Fog.


Feels Like: 60 °F
Forecast: 61 / 80 °F
Wind: No wind

Location: Raleigh-Durham International Airport

Current Time: Oct 2, 2014 at 5:00:19 AM

Latest Report: Oct 2, 2014 at 3:51 AM


Visibility: 5 mi

Pressure: 30.06 "Hg

Humidity: 93%

Dew point: 58 °F

Location of DurhamLocation

Historic Weather in Durham — Graph

°F

Durham temperature yesterday

Maximum temperature yesterday: 78 °F (at 3:51 PM)
Minimum temperature yesterday: 57 °F (at 2:51 AM)
Average temperature yesterday: 66 °F

Past Weeks' High & Low Weather Summary

 TemperatureHumidityPressure
High86 °F (Sep 21, 2:51 PM)97% (Sep 30, 2:51 AM)30.32 "Hg (Sep 30, 2:51 AM)
Low55 °F (Sep 24, 1:51 AM)43% (Sep 21, 2:51 PM)29.78 "Hg (Sep 21, 3:51 PM)
Average67 °F78%30.09 "Hg
* Reported Sep 17 3:51 AM — Oct 2 3:51 AM, Durham, Weather by CustomWeather, © 2014

Note: Actual official high and low records may vary slightly from our data, if they occured in-between our weather recording intervals... More about our weather records

Advertising

Durham weather history for previous 24 hours

 ConditionsComfort  
Time TempWeatherWind HumidityBarometerVisibility
3:51 AM
Oct 2
60 °FFog.No wind93%30.06 "Hg5 mi
2:51 AM61 °FFog.No wind93%30.06 "Hg6 mi
1:51 AM62 °FFog.No wind93%30.06 "Hg6 mi
12:51 AM61 °FFog.No wind93%30.05 "Hg6 mi
11:51 PM
Oct 1
64 °FFog.No wind94%30.05 "Hg6 mi
10:51 PM63 °FFog.No wind93%30.04 "Hg6 mi
9:51 PM64 °FFog.No wind94%30.03 "Hg6 mi
8:51 PM66 °FFog.No wind87%30.02 "Hg6 mi
7:51 PM67 °FPartly sunny.No wind87%30.00 "Hg7 mi
6:51 PM70 °FPartly sunny.No wind79%30.00 "Hg10 mi
5:51 PM76 °FPartly sunny.No wind62%29.98 "Hg10 mi
4:51 PM78 °FBroken clouds.3 mph58%29.98 "Hg10 mi
3:51 PM78 °FBroken clouds.No wind56%29.98 "Hg10 mi
2:51 PM77 °FBroken clouds.3 mph58%30.00 "Hg10 mi
1:51 PM74 °FPartly sunny.No wind64%30.01 "Hg10 mi
12:51 PM73 °FOvercast.No wind69%30.03 "Hg10 mi
11:51 AM73 °FBroken clouds.No wind71%30.03 "Hg10 mi
10:51 AM69 °FBroken clouds.No wind81%30.03 "Hg10 mi
9:51 AM66 °FScattered clouds.No wind87%30.01 "Hg8 mi
8:51 AM63 °FFog.3 mph93%29.99 "Hg1 mi
8:03 AM61 °FFog.3 mph88%29.99 "Hg0 mi
7:51 AM59 °FFog.3 mph93%29.98 "Hg0 mi
6:51 AM58 °FFog.No wind93%29.96 "Hg5 mi
5:51 AM59 °FFog.5 mph93%29.95 "Hg5 mi
Weather by CustomWeather, © 2014

See weather overviewHow to use our weather pages